Dewpoint
-6 -6 -4 -3 -1 0 2 2 3 4 6 7 9 11 11 11 10 9 8 9 9 9 8 8 8 9 9 10 11 11 11 11
-7 -7 -6 -4 -2 0 1 2 1 3 5 6 7 9 11 11 11 10 8 9 9 9 8 7 8 9 9 10 10 11 11 11
-6 -7 -6 -5 -4 -2 1 2 2 3 4 5 6 7 9 11 11 10 9 9 10 9 8 7 8 8 8 9 10 10 10 10
-5 -5 -5 -4 -3 -2 -2 -0 2 3 3 4 6 6 7 9 10 11 10 9 10 9 9 8 8 7 8 8 8 8 10 10
-6 -5 -5 -5 -4 -3 -3 -2 -1 2 3 3 4 6 8 8 10 11 11 10 10 10 9 9 8 8 8 8 8 8 9 10
-4 -5 -5 -4 -4 -4 -3 -3 -2 -1 1 3 3 5 7 8 9 10 11 10 10 10 9 9 9 9 8 8 8 8 9 9
-0 -3 -4 -5 -4 -3 -3 -3 -2 -1 -0 1 2 3 4 7 9 9 10 11 11 10 9 9 9 9 9 9 9 9 8 8
5 4 0 -3 -3 -3 -3 -3 -2 -1 -0 -1 1 2 3 5 8 9 10 11 11 11 10 10 10 10 9 9 9 9 9 8
7 7 7 5 1 -2 -2 -2 -2 -1 -0 -1 1 1 2 4 7 9 10 11 11 11 11 11 11 11 10 10 9 8 9 9
7 8 9 8 7 4 1 -0 -1 -0 0 -0 1 2 2 4 7 8 10 10 11 11 11 11 11 11 11 10 10 9 9 9
8 7 9 10 9 8 7 5 4 3 3 3 3 3 4 3 5 7 10 11 11 12 12 11 11 11 11 10 10 10 9 9
-8 -6 -3 4 11 11 10 10 10 8 6 6 5 5 5 4 4 7 10 11 12 12 12 12 11 11 11 11 11 11 10 9
-6 -7 -7 -3 9 11 12 10 10 11 10 9 8 7 7 5 4 7 10 11 12 11 12 12 12 11 10 11 10 11 10 10
-5 -5 -6 -6 -2 2 10 11 10 11 11 12 11 9 8 7 6 5 9 11 12 11 11 10 10 10 10 11 10 9 9 10
-1 -4 -3 -4 -2 2 11 13 13 10 10 11 12 11 10 8 7 5 7 10 13 11 11 10 10 10 10 10 10 9 9 10
4 0 2 5 9 12 12 9 10 8 7 8 9 11 10 10 9 7 6 8 10 11 12 11 9 9 10 10 10 9 9 9
10 11 10 11 14 13 11 11 10 11 9 9 9 10 10 11 10 8 6 7 9 10 10 10 11 10 10 9 9 9 9 9
7 10 13 13 14 14 14 11 11 9 9 10 9 9 10 11 11 10 7 6 7 9 10 10 10 10 10 9 9 9 9 9
5 6 8 10 13 14 14 13 10 10 7 8 11 9 8 10 11 11 10 8 8 9 11 11 11 11 10 10 9 8 9 9
6 4 4 6 8 11 13 14 13 11 7 6 10 7 6 8 10 12 11 11 10 11 11 11 11 10 10 9 8 8 9 9
Wind_Speed
27 25 23 21 19 19 19 18 17 17 17 18 18 17 16 16 15 15 14 12 12 12 12 11 11 10 10 11 10 10 10 12
26 24 24 23 21 20 19 18 17 17 17 17 17 18 17 17 16 16 15 14 14 13 12 11 11 9 8 8 10 10 10 12
27 25 24 23 22 21 20 19 18 18 18 18 18 19 19 19 18 17 18 16 16 15 14 13 11 9 11 12 10 12 11 12
28 27 25 24 23 22 21 20 21 21 20 20 20 19 19 20 20 19 19 19 17 17 15 15 13 9 13 16 12 12 15 13
30 28 26 25 24 23 21 21 22 22 21 21 20 20 21 21 22 22 22 23 20 20 19 18 16 12 14 18 14 14 17 16
30 29 29 28 26 25 24 23 22 23 22 22 22 22 23 23 23 24 25 25 24 22 22 19 18 14 14 18 18 15 17 17
32 31 31 31 30 29 27 25 23 22 23 23 22 22 23 23 24 24 26 27 25 25 22 21 20 17 16 18 22 18 20 18
31 31 32 32 32 32 31 28 26 24 24 24 23 22 22 22 23 25 26 27 26 25 24 23 22 20 19 20 22 21 20 24
30 29 28 31 33 33 33 31 30 28 27 26 24 23 22 22 23 24 26 27 26 25 25 25 24 23 21 21 23 23 23 23
32 33 34 33 32 32 33 33 32 31 29 27 25 24 23 23 24 24 25 26 26 26 26 26 26 25 23 23 23 24 24 25
38 35 37 37 36 35 33 34 33 32 31 29 27 25 24 23 24 24 24 26 28 27 27 27 26 26 24 24 24 25 27 26
31 31 30 35 41 40 37 36 34 33 32 31 29 27 25 23 24 24 25 27 28 28 28 27 26 24 25 25 26 26 26 28
35 34 33 36 45 45 45 41 36 35 34 32 30 28 26 25 23 25 27 29 30 28 27 27 25 24 23 25 24 22 26 29
32 33 32 35 40 42 49 45 42 38 35 32 29 30 28 28 26 27 28 29 30 29 28 27 28 27 26 24 14 24 29 25
18 22 32 34 39 44 50 46 43 38 34 33 32 32 31 30 28 28 29 29 32 30 30 30 27 29 29 23 10 10 15 25
12 21 28 34 40 41 45 49 47 41 40 38 39 35 34 32 30 30 29 29 30 31 31 31 29 30 29 30 30 17 10 12
9 15 23 28 29 35 39 42 43 42 43 40 41 36 35 35 33 31 30 31 30 30 28 28 30 31 32 32 30 31 28 22
11 8 12 17 23 29 33 37 39 40 37 42 41 36 35 36 35 33 31 30 31 29 29 28 30 32 33 33 32 33 35 34
9 7 5 7 20 25 32 35 36 35 40 47 40 33 36 37 39 37 35 31 30 29 30 32 32 33 33 35 30 31 31 37
13 7 3 5 9 20 30 36 38 38 38 41 41 36 33 38 40 39 36 32 31 30 30 32 32 33 31 32 27 29 32 36
Wind_Direction
171 170 168 174 180 182 184 184 184 186 187 185 188 189 192 192 192 192 192 188 178 172 169 163 160 173 181 183 184 183 186 186
174 171 173 176 181 185 187 188 188 188 190 190 190 192 195 199 199 198 199 196 186 179 179 173 170 169 185 199 189 197 189 193
179 178 179 181 184 186 190 192 192 192 193 196 197 198 197 202 205 205 205 203 195 189 186 179 183 193 194 200 208 215 203 189
186 185 185 186 188 190 193 197 197 198 200 201 203 204 203 206 208 210 211 211 204 200 198 195 194 209 209 209 224 230 221 215
193 193 193 194 194 196 199 203 205 204 205 207 207 206 207 207 208 209 215 214 211 207 208 207 213 224 224 220 225 236 230 230
200 202 203 204 203 205 205 207 209 211 210 211 211 210 210 211 212 213 217 219 218 217 218 218 221 232 231 229 232 232 226 229
208 209 211 213 212 212 213 213 214 216 217 216 217 218 216 214 217 216 220 224 225 225 224 227 229 236 236 234 234 237 231 234
217 217 221 221 221 219 220 219 220 219 221 223 223 224 222 218 219 219 221 226 230 232 233 235 237 240 239 237 236 236 239 238
224 225 227 229 229 228 225 224 223 222 221 223 225 225 224 223 222 222 224 228 231 232 234 240 241 241 241 239 236 240 243 241
229 229 231 230 230 231 230 226 225 224 222 219 221 222 223 224 223 223 226 227 230 232 234 238 238 241 240 238 237 242 243 248
235 237 238 236 234 232 228 227 225 226 221 221 221 222 223 226 228 225 224 227 230 231 233 236 238 238 237 236 237 243 242 252
240 238 234 237 238 234 231 230 227 227 224 226 223 223 226 228 230 229 226 227 230 232 233 234 238 238 243 242 240 246 244 252
241 237 238 232 234 235 232 231 232 229 228 228 227 228 229 231 230 228 227 229 229 230 236 238 238 242 246 249 253 252 249 255
240 234 236 233 229 234 237 234 231 233 232 230 228 233 234 233 234 231 227 226 226 228 231 238 241 241 235 239 245 247 257 249
228 225 228 238 235 232 232 233 230 232 235 240 233 235 236 234 236 234 229 229 225 226 226 234 243 242 238 232 216 226 227 248
200 209 215 226 229 229 233 234 229 229 234 235 237 232 234 234 236 237 233 231 229 230 232 235 235 243 240 241 237 238 216 235
135 184 201 214 215 227 233 237 241 235 231 233 237 234 232 232 234 234 233 231 232 232 234 237 239 243 242 242 244 241 250 230
102 132 191 204 207 213 229 238 237 241 241 243 238 236 236 233 234 233 233 233 232 233 233 236 240 244 246 246 243 240 244 241
69 88 126 188 214 216 218 230 237 239 233 238 249 243 243 243 238 232 233 234 234 234 235 236 241 246 249 245 244 249 250 251
37 13 322 238 230 229 226 226 231 231 234 235 246 253 257 252 242 238 238 239 236 232 235 240 244 249 245 243 241 240 252 248
Height
1472 1475 1478 1483 1487 1489 1491 1493 1495 1497 1501 1502 1507 1510 1513 1515 1516 1518 1520 1522 1524 1525 1527 1528 1530 1531 1532 1533 1536 1537 1539 1540
1472 1474 1477 1480 1484 1488 1491 1493 1494 1496 1499 1502 1504 1507 1511 1514 1516 1517 1519 1521 1523 1525 1527 1529 1530 1532 1533 1534 1536 1538 1539 1540
1470 1472 1476 1479 1482 1486 1490 1492 1494 1495 1497 1500 1502 1505 1508 1511 1514 1516 1517 1520 1521 1523 1526 1529 1530 1532 1533 1534 1536 1537 1538 1539
1468 1470 1474 1477 1481 1484 1487 1490 1492 1494 1495 1497 1500 1503 1505 1508 1512 1514 1516 1518 1520 1522 1524 1526 1528 1530 1533 1533 1535 1536 1538 1539
1464 1468 1472 1475 1478 1482 1484 1487 1489 1492 1494 1496 1498 1500 1503 1505 1508 1511 1514 1516 1518 1520 1521 1522 1526 1528 1530 1532 1533 1535 1536 1538
1461 1465 1468 1472 1475 1479 1481 1484 1486 1489 1491 1494 1495 1497 1500 1502 1504 1508 1511 1513 1515 1517 1519 1521 1523 1526 1528 1530 1531 1533 1534 1536
1458 1461 1465 1467 1471 1475 1478 1480 1483 1486 1489 1490 1493 1494 1496 1499 1502 1505 1508 1511 1513 1515 1517 1519 1520 1523 1525 1527 1529 1530 1532 1533
1456 1459 1461 1464 1467 1470 1474 1477 1479 1482 1486 1488 1489 1492 1493 1496 1499 1501 1504 1507 1510 1512 1515 1516 1518 1520 1522 1525 1527 1528 1530 1531
1452 1455 1458 1461 1463 1466 1469 1473 1475 1478 1481 1484 1486 1488 1490 1492 1495 1497 1501 1504 1507 1509 1511 1513 1515 1516 1519 1521 1523 1526 1526 1528
1449 1451 1454 1457 1459 1462 1465 1468 1471 1473 1477 1480 1483 1485 1487 1489 1491 1494 1498 1501 1503 1505 1507 1509 1511 1513 1514 1517 1519 1522 1523 1524
1445 1446 1449 1453 1455 1457 1460 1463 1466 1469 1473 1476 1479 1482 1483 1485 1487 1490 1494 1497 1499 1501 1503 1505 1507 1509 1511 1513 1515 1517 1519 1520
1435 1439 1443 1446 1449 1454 1456 1459 1463 1466 1468 1471 1474 1477 1479 1481 1483 1486 1489 1493 1495 1497 1499 1501 1504 1506 1508 1509 1511 1513 1515 1516
1426 1430 1436 1438 1441 1445 1449 1451 1457 1460 1464 1467 1470 1473 1475 1477 1479 1482 1484 1487 1490 1494 1497 1498 1500 1503 1505 1506 1507 1509 1509 1510
1419 1424 1428 1430 1432 1437 1440 1444 1448 1454 1458 1463 1467 1469 1471 1472 1474 1477 1479 1483 1486 1489 1492 1495 1496 1498 1500 1502 1504 1505 1504 1505
1410 1416 1421 1424 1428 1430 1433 1438 1442 1449 1454 1457 1460 1464 1466 1468 1470 1472 1474 1477 1480 1484 1487 1490 1491 1493 1495 1498 1498 1498 1498 1500
1404 1407 1412 1417 1422 1425 1429 1430 1433 1441 1446 1450 1453 1457 1461 1464 1465 1468 1470 1472 1475 1478 1481 1484 1487 1488 1490 1491 1492 1495 1494 1497
1400 1403 1406 1411 1416 1420 1425 1429 1433 1436 1440 1444 1446 1451 1453 1457 1460 1462 1464 1466 1469 1472 1476 1479 1482 1483 1484 1485 1488 1490 1492 1492
1401 1402 1404 1407 1412 1416 1420 1424 1427 1432 1438 1440 1440 1445 1449 1452 1454 1456 1458 1460 1463 1467 1470 1473 1476 1477 1479 1480 1481 1483 1484 1485
1399 1401 1404 1406 1408 1411 1415 1417 1422 1427 1429 1431 1422 1438 1443 1444 1447 1449 1451 1453 1457 1461 1465 1467 1470 1471 1473 1473 1475 1477 1478 1479
1397 1398 1401 1403 1406 1408 1409 1413 1415 1419 1424 1426 1428 1432 1436 1438 1440 1443 1445 1448 1451 1455 1458 1461 1463 1465 1466 1468 1470 1471 1472 1471